Location: *
(45.0500°N, 12.0500°E)
Time: 01:22:59
(UTC+00:00)

STARLINK-1271 - Pass Details

Date: 09 April 2020
Orbit: 548 x 551 km, 53.0° (Epoch: 30 May)

Event Time Altitude Azimuth Distance (km) Brightness Sun altitude
Rises 18:18:42 0° 303° (WNW) 2,702 9.0 -5.7°
Reaches altitude 10° 18:20:57 10° 307° (NW) 1,808 7.7 -6.1°
Maximum altitude 18:25:00 59° 27° (NNE) 629 3.9 -6.8°
Drops below altitude 10° 18:29:03 10° 108° (ESE) 1,802 5.5 -7.4°
Enters shadow 18:29:09 - 108° (ESE) 1,841 5.6 -7.5°
